Location: Delta State University
(33.7460°N, 90.7320°W)
Time: 11:39:36
(UTC-05:00)

Iridium 13 - Visible Passes

Search period start: 25 July 2017 00:00
Search period end: 04 August 2017 00:00
Orbit: 761 x 765 km, 86.4° (Epoch: 24 July)

Date Brightness Start Highest point End Pass type
(mag) Time Alt. Az. Time Alt. Az. Time Alt. Az.
25 Jul 7.3 02:25:04 25° ENE 02:25:04 25° ENE 02:28:41 10° NNE visible
25 Jul 6.6 04:05:14 28° WNW 04:05:14 28° WNW 04:09:10 10° NNW visible
26 Jul 8.1 01:47:29 11° ENE 01:47:29 11° ENE 01:48:37 10° ENE visible
26 Jul 5.9 03:27:39 52° NW 03:27:39 52° NW 03:31:50 10° N visible
27 Jul 6.3 02:50:03 47° NE 02:50:03 47° NE 02:53:56 10° N visible
27 Jul 7.6 04:30:14 12° WNW 04:30:14 12° WNW 04:31:30 10° NW visible
28 Jul 7.4 02:12:28 24° ENE 02:12:28 24° ENE 02:15:27 10° NNE visible
28 Jul 6.9 03:52:37 24° WNW 03:52:37 24° WNW 03:55:42 10° NNW visible
29 Jul 8.1 01:34:51 12° ENE 01:34:51 12° ENE 01:35:43 10° NE visible
29 Jul 6.4 03:15:00 39° NNW 03:15:00 39° NNW 03:18:28 10° N visible
30 Jul 6.7 02:37:23 38° NNE 02:37:23 38° NNE 02:40:37 10° N visible
31 Jul 7.5 01:59:45 23° NE 01:59:45 23° NE 02:02:13 10° NNE visible
31 Jul 7.3 03:39:56 20° NW 03:39:56 20° NW 03:42:14 10° NNW visible
01 Aug 8.2 01:22:07 11° ENE 01:22:07 11° ENE 01:22:43 10° NE visible
01 Aug 6.9 03:02:17 30° NNW 03:02:17 30° NNW 03:05:05 10° N visible
02 Aug 7.1 02:24:39 31° NNE 02:24:39 31° NNE 02:27:17 10° N visible
03 Aug 7.7 01:46:59 21° NE 01:46:59 21° NE 01:48:57 10° NNE visible
03 Aug 7.6 03:27:09 16° NW 03:27:09 16° NW 03:28:45 10° NNW visible
